Time,TemperatureF,DewpointF,PressureIn,WindDirection,WindDirectionDegrees,WindSpeedMPH,WindSpeedGustMPH,Humidity,HourlyPrecipIn,Conditions,Clouds,dailyrainin,SolarRadiationWatts/m^2,SoftwareType,DateUTC
2013-02-04 00:03:00,47.0,45.0,-100.00,NW,307,6.0,-999.0,90,0.00,,,-99.99,0.000000,,2013-02-04 05:03:00,
2013-02-04 00:11:00,47.0,45.0,-100.00,WNW,290,5.0,-999.0,91,0.00,,,-99.99,0.000000,,2013-02-04 05:11:00,
2013-02-04 00:22:00,47.0,45.0,-100.00,WNW,290,5.0,-999.0,91,0.00,,,-99.99,0.000000,,2013-02-04 05:22:00,
2013-02-04 00:33:00,47.0,44.0,-100.00,West,275,6.0,-999.0,92,0.00,,,-99.99,0.000000,,2013-02-04 05:33:00,
2013-02-04 00:42:00,46.0,44.0,-100.00,West,260,6.0,-999.0,93,0.00,,,-99.99,0.000000,,2013-02-04 05:42:00,
2013-02-04 00:52:00,46.0,44.0,-100.00,West,260,6.0,-999.0,93,0.00,,,-99.99,0.000000,,2013-02-04 05:52:00,
2013-02-04 01:02:00,46.0,44.0,-100.00,WSW,254,5.0,-999.0,93,0.00,,,-99.99,0.000000,,2013-02-04 06:02:00,
2013-02-04 01:11:00,45.0,44.0,-100.00,West,278,6.0,-999.0,94,0.00,,,-99.99,0.000000,,2013-02-04 06:11:00,
2013-02-04 01:21:00,45.0,44.0,-100.00,West,278,6.0,-999.0,94,0.00,,,-99.99,0.000000,,2013-02-04 06:21:00,
2013-02-04 01:32:00,45.0,43.0,-100.00,WNW,292,6.0,-999.0,94,0.00,,,-99.99,0.000000,,2013-02-04 06:32:00,
2013-02-04 01:42:00,44.0,43.0,-100.00,WNW,294,6.0,-999.0,95,0.00,,,-99.99,0.000000,,2013-02-04 06:42:00,
2013-02-04 01:52:00,44.0,43.0,-100.00,WNW,294,6.0,-999.0,95,0.00,,,-99.99,0.000000,,2013-02-04 06:52:00,
2013-02-04 02:02:00,44.0,43.0,-100.00,WNW,297,6.0,-999.0,95,0.00,,,-99.99,0.000000,,2013-02-04 07:02:00,
2013-02-04 02:11:00,44.0,43.0,-100.00,WNW,296,6.0,-999.0,96,0.00,,,-99.99,0.000000,,2013-02-04 07:11:00,
2013-02-04 02:21:00,44.0,43.0,-100.00,WNW,296,6.0,-999.0,96,0.00,,,-99.99,0.000000,,2013-02-04 07:21:00,
2013-02-04 02:32:00,45.0,44.0,-100.00,WNW,292,7.0,-999.0,96,0.00,,,-99.99,0.000000,,2013-02-04 07:32:00,
2013-02-04 02:42:00,46.0,45.0,-100.00,WNW,298,7.0,-999.0,96,0.00,,,-99.99,0.000000,,2013-02-04 07:42:00,
2013-02-04 02:52:00,46.0,45.0,-100.00,WNW,298,7.0,-999.0,96,0.00,,,-99.99,0.000000,,2013-02-04 07:52:00,
2013-02-04 03:01:00,46.0,45.0,-100.00,WNW,300,6.0,-999.0,96,0.00,,,-99.99,0.000000,,2013-02-04 08:01:00,
2013-02-04 03:11:00,46.0,45.0,-100.00,WNW,299,6.0,-999.0,97,0.00,,,-99.99,0.000000,,2013-02-04 08:11:00,
2013-02-04 03:21:00,46.0,45.0,-100.00,WNW,299,6.0,-999.0,97,0.00,,,-99.99,0.000000,,2013-02-04 08:21:00,
2013-02-04 03:31:00,46.0,45.0,-100.00,WNW,282,6.0,-999.0,97,0.00,,,-99.99,0.000000,,2013-02-04 08:31:00,
2013-02-04 03:42:00,45.0,45.0,-100.00,WNW,299,6.0,-999.0,97,0.00,,,-99.99,0.000000,,2013-02-04 08:42:00,
2013-02-04 03:52:00,45.0,45.0,-100.00,WNW,299,6.0,-999.0,97,0.00,,,-99.99,0.000000,,2013-02-04 08:52:00,
2013-02-04 04:02:00,45.0,44.0,-100.00,WNW,296,5.0,-999.0,97,0.00,,,-99.99,0.000000,,2013-02-04 09:02:00,
2013-02-04 04:11:00,45.0,44.0,-100.00,WNW,297,3.0,-999.0,97,0.00,,,-99.99,0.000000,,2013-02-04 09:11:00,
2013-02-04 04:21:00,45.0,44.0,-100.00,WNW,297,3.0,-999.0,97,0.00,,,-99.99,0.000000,,2013-02-04 09:21:00,
2013-02-04 04:32:00,44.0,43.0,-100.00,NW,320,4.0,-999.0,96,0.00,,,-99.99,0.000000,,2013-02-04 09:32:00,
2013-02-04 04:42:00,43.0,42.0,-100.00,NW,311,4.0,-999.0,97,0.00,,,-99.99,0.000000,,2013-02-04 09:42:00,
2013-02-04 04:52:00,43.0,42.0,-100.00,NW,311,4.0,-999.0,97,0.00,,,-99.99,0.000000,,2013-02-04 09:52:00,
2013-02-04 05:01:00,44.0,43.0,-100.00,NW,317,3.0,-999.0,97,0.00,,,-99.99,0.000000,,2013-02-04 10:01:00,
2013-02-04 05:11:00,44.0,43.0,-100.00,NW,323,4.0,-999.0,97,0.00,,,-99.99,0.000000,,2013-02-04 10:11:00,
2013-02-04 05:21:00,44.0,43.0,-100.00,NW,323,4.0,-999.0,97,0.00,,,-99.99,0.000000,,2013-02-04 10:21:00,
2013-02-04 05:32:00,44.0,43.0,-100.00,NW,309,4.0,-999.0,97,0.00,,,-99.99,0.000000,,2013-02-04 10:32:00,
2013-02-04 05:42:00,44.0,43.0,-100.00,NNW,328,4.0,-999.0,97,0.00,,,-99.99,0.000000,,2013-02-04 10:42:00,
2013-02-04 05:52:00,44.0,43.0,-100.00,NNW,328,4.0,-999.0,97,0.00,,,-99.99,0.000000,,2013-02-04 10:52:00,
2013-02-04 06:02:00,44.0,43.0,-100.00,NW,321,2.0,-999.0,96,0.00,,,-99.99,0.000000,,2013-02-04 11:02:00,
2013-02-04 06:11:00,43.0,42.0,-100.00,NW,319,1.0,-999.0,97,0.00,,,-99.99,0.000000,,2013-02-04 11:11:00,
2013-02-04 06:22:00,43.0,42.0,-100.00,NW,319,1.0,-999.0,97,0.00,,,-99.99,0.000000,,2013-02-04 11:22:00,
2013-02-04 06:32:00,42.0,42.0,-100.00,NNW,345,1.0,-999.0,97,0.00,,,-99.99,0.000000,,2013-02-04 11:32:00,
2013-02-04 06:42:00,44.0,43.0,-100.00,NNE,28,3.0,-999.0,97,0.00,,,-99.99,0.000000,,2013-02-04 11:42:00,
2013-02-04 06:52:00,44.0,43.0,-100.00,NNE,28,3.0,-999.0,97,0.00,,,-99.99,0.000000,,2013-02-04 11:52:00,
2013-02-04 07:02:00,45.0,45.0,-100.00,North,4,4.0,-999.0,97,0.00,,,-99.99,0.000000,,2013-02-04 12:02:00,
2013-02-04 07:12:00,46.0,45.0,-100.00,North,8,4.0,-999.0,97,0.00,,,-99.99,0.500000,,2013-02-04 12:12:00,
2013-02-04 07:22:00,46.0,45.0,-100.00,North,8,4.0,-999.0,97,0.00,,,-99.99,0.500000,,2013-02-04 12:22:00,
2013-02-04 07:32:00,46.0,45.0,-100.00,North,4,3.0,-999.0,96,0.00,,,-99.99,5.200000,,2013-02-04 12:32:00,
2013-02-04 07:42:00,46.0,45.0,-100.00,NNW,336,4.0,-999.0,96,0.00,,,-99.99,16.500000,,2013-02-04 12:42:00,
2013-02-04 07:53:00,46.0,45.0,-100.00,NNW,336,4.0,-999.0,96,0.00,,,-99.99,16.500000,,2013-02-04 12:53:00,
2013-02-04 08:02:00,46.0,45.0,-100.00,NW,313,3.0,-999.0,96,0.00,,,-99.99,42.799999,,2013-02-04 13:02:00,
2013-02-04 08:12:00,47.0,46.0,-100.00,West,270,2.0,-999.0,96,0.00,,,-99.99,79.900002,,2013-02-04 13:12:00,
2013-02-04 08:21:00,47.0,46.0,-100.00,West,270,2.0,-999.0,96,0.00,,,-99.99,79.900002,,2013-02-04 13:21:00,
2013-02-04 08:33:00,48.0,47.0,-100.00,WSW,239,2.0,-999.0,96,0.00,,,-99.99,193.300003,,2013-02-04 13:33:00,
2013-02-04 08:42:00,51.0,50.0,-100.00,NW,319,2.0,-999.0,95,0.00,,,-99.99,248.699997,,2013-02-04 13:42:00,
2013-02-04 08:52:00,51.0,50.0,-100.00,NW,319,2.0,-999.0,95,0.00,,,-99.99,248.699997,,2013-02-04 13:52:00,
2013-02-04 09:03:00,53.0,51.0,-100.00,NNW,348,2.0,-999.0,94,0.00,,,-99.99,245.399994,,2013-02-04 14:03:00,
2013-02-04 09:12:00,54.0,52.0,-100.00,NNW,339,2.0,-999.0,90,0.00,,,-99.99,306.899994,,2013-02-04 14:12:00,
2013-02-04 09:22:00,54.0,52.0,-100.00,NNW,339,2.0,-999.0,90,0.00,,,-99.99,306.899994,,2013-02-04 14:22:00,
2013-02-04 09:32:00,56.0,51.0,-100.00,NNE,13,4.0,-999.0,83,0.00,,,-99.99,292.500000,,2013-02-04 14:32:00,
2013-02-04 09:42:00,58.0,50.0,-100.00,NNE,22,4.0,-999.0,76,0.00,,,-99.99,439.000000,,2013-02-04 14:42:00,
2013-02-04 09:52:00,58.0,50.0,-100.00,NNE,22,4.0,-999.0,76,0.00,,,-99.99,439.000000,,2013-02-04 14:52:00,
2013-02-04 10:03:00,59.0,49.0,-100.00,NNE,29,4.0,-999.0,70,0.00,,,-99.99,453.399994,,2013-02-04 15:03:00,
2013-02-04 10:12:00,61.0,48.0,-100.00,NE,41,4.0,-999.0,64,0.00,,,-99.99,567.599976,,2013-02-04 15:12:00,
2013-02-04 10:23:00,61.0,48.0,-100.00,NE,41,4.0,-999.0,64,0.00,,,-99.99,567.599976,,2013-02-04 15:23:00,
2013-02-04 10:33:00,61.0,45.0,-100.00,NNE,26,6.0,-999.0,54,0.00,,,-99.99,555.000000,,2013-02-04 15:33:00,
2013-02-04 10:43:00,61.0,45.0,-100.00,NNE,26,6.0,-999.0,54,0.00,,,-99.99,555.000000,,2013-02-04 15:43:00,
2013-02-04 10:53:00,62.0,45.0,-100.00,NE,41,6.0,-999.0,52,0.00,,,-99.99,598.000000,,2013-02-04 15:53:00,
2013-02-04 11:03:00,64.0,43.0,-100.00,NE,36,6.0,-999.0,45,0.00,,,-99.99,664.200012,,2013-02-04 16:03:00,
2013-02-04 11:11:00,64.0,38.0,-100.00,ENE,60,8.0,-999.0,37,0.00,,,-99.99,538.099976,,2013-02-04 16:11:00,
2013-02-04 11:23:00,64.0,38.0,-100.00,ENE,60,8.0,-999.0,37,0.00,,,-99.99,538.099976,,2013-02-04 16:23:00,
2013-02-04 11:42:00,64.0,35.0,-100.00,ENE,63,7.0,-999.0,34,0.00,,,-99.99,361.200012,,2013-02-04 16:42:00,
2013-02-04 11:52:00,64.0,35.0,-100.00,ENE,63,7.0,-999.0,34,0.00,,,-99.99,361.200012,,2013-02-04 16:52:00,
2013-02-04 12:02:00,65.0,39.0,-100.00,ENE,61,8.0,-999.0,38,0.00,,,-99.99,718.000000,,2013-02-04 17:02:00,
2013-02-04 12:11:00,66.0,38.0,-100.00,ESE,106,7.0,-999.0,35,0.00,,,-99.99,734.000000,,2013-02-04 17:11:00,
2013-02-04 12:21:00,66.0,38.0,-100.00,ESE,106,7.0,-999.0,35,0.00,,,-99.99,734.000000,,2013-02-04 17:21:00,
2013-02-04 12:32:00,67.0,37.0,-100.00,ENE,77,5.0,-999.0,34,0.00,,,-99.99,750.000000,,2013-02-04 17:32:00,
2013-02-04 12:42:00,67.0,38.0,-100.00,SSE,149,5.0,-999.0,34,0.00,,,-99.99,755.000000,,2013-02-04 17:42:00,
2013-02-04 12:52:00,67.0,38.0,-100.00,SSE,149,5.0,-999.0,34,0.00,,,-99.99,755.000000,,2013-02-04 17:52:00,
2013-02-04 13:03:00,67.0,38.0,-100.00,SSE,149,5.0,-999.0,34,0.00,,,-99.99,755.000000,,2013-02-04 18:03:00,
2013-02-04 13:11:00,68.0,36.0,-100.00,SE,134,6.0,-999.0,31,0.00,,,-99.99,742.000000,,2013-02-04 18:11:00,
2013-02-04 13:22:00,68.0,36.0,-100.00,SE,134,6.0,-999.0,31,0.00,,,-99.99,742.000000,,2013-02-04 18:22:00,
2013-02-04 13:32:00,68.0,37.0,-100.00,ESE,121,6.0,-999.0,31,0.00,,,-99.99,733.000000,,2013-02-04 18:32:00,
2013-02-04 13:42:00,68.0,37.0,-100.00,SE,131,8.0,-999.0,31,0.00,,,-99.99,720.000000,,2013-02-04 18:42:00,
2013-02-04 13:52:00,68.0,37.0,-100.00,SE,131,8.0,-999.0,31,0.00,,,-99.99,720.000000,,2013-02-04 18:52:00,
2013-02-04 14:02:00,69.0,38.0,-100.00,SE,129,7.0,-999.0,31,0.00,,,-99.99,704.000000,,2013-02-04 19:02:00,
2013-02-04 14:11:00,69.0,38.0,-100.00,SE,126,6.0,-999.0,32,0.00,,,-99.99,683.599976,,2013-02-04 19:11:00,
2013-02-04 14:22:00,69.0,38.0,-100.00,SE,126,6.0,-999.0,32,0.00,,,-99.99,683.599976,,2013-02-04 19:22:00,
2013-02-04 14:32:00,70.0,40.0,-100.00,ESE,115,6.0,-999.0,32,0.00,,,-99.99,659.200012,,2013-02-04 19:32:00,
2013-02-04 14:42:00,70.0,39.0,-100.00,ESE,117,8.0,-999.0,32,0.00,,,-99.99,634.099976,,2013-02-04 19:42:00,
2013-02-04 14:52:00,70.0,39.0,-100.00,ESE,117,8.0,-999.0,32,0.00,,,-99.99,634.099976,,2013-02-04 19:52:00,
2013-02-04 15:02:00,70.0,39.0,-100.00,SE,129,5.0,-999.0,32,0.00,,,-99.99,603.799988,,2013-02-04 20:02:00,
2013-02-04 15:12:00,71.0,39.0,-100.00,SW,219,7.0,-999.0,30,0.00,,,-99.99,571.000000,,2013-02-04 20:12:00,
2013-02-04 15:22:00,71.0,39.0,-100.00,SW,219,7.0,-999.0,30,0.00,,,-99.99,571.000000,,2013-02-04 20:22:00,
2013-02-04 15:32:00,71.0,38.0,-100.00,SSW,209,6.0,-999.0,29,0.00,,,-99.99,534.700012,,2013-02-04 20:32:00,
2013-02-04 15:42:00,71.0,38.0,-100.00,SSW,209,6.0,-999.0,29,0.00,,,-99.99,534.700012,,2013-02-04 20:42:00,
2013-02-04 15:52:00,71.0,36.0,-100.00,SSW,198,6.0,-999.0,28,0.00,,,-99.99,496.500000,,2013-02-04 20:52:00,
2013-02-04 16:02:00,71.0,36.0,-100.00,SSW,198,6.0,-999.0,28,0.00,,,-99.99,496.500000,,2013-02-04 21:02:00,
2013-02-04 16:12:00,71.0,36.0,-100.00,SW,218,4.0,-999.0,27,0.00,,,-99.99,454.500000,,2013-02-04 21:12:00,
2013-02-04 16:23:00,71.0,37.0,-100.00,South,180,3.0,-999.0,28,0.00,,,-99.99,407.799988,,2013-02-04 21:23:00,
2013-02-04 16:32:00,71.0,37.0,-100.00,SW,214,4.0,-999.0,27,0.00,,,-99.99,361.100006,,2013-02-04 21:32:00,
2013-02-04 16:43:00,71.0,37.0,-100.00,SW,214,4.0,-999.0,27,0.00,,,-99.99,361.100006,,2013-02-04 21:43:00,
2013-02-04 16:52:00,71.0,36.0,-100.00,SSW,213,5.0,-999.0,27,0.00,,,-99.99,287.899994,,2013-02-04 21:52:00,
2013-02-04 17:03:00,70.0,35.0,-100.00,SSW,206,5.0,-999.0,26,0.00,,,-99.99,255.899994,,2013-02-04 22:03:00,
2013-02-04 17:12:00,71.0,34.0,-100.00,SW,219,5.0,-999.0,25,0.00,,,-99.99,218.600006,,2013-02-04 22:12:00,
2013-02-04 17:21:00,71.0,34.0,-100.00,SW,219,5.0,-999.0,25,0.00,,,-99.99,218.600006,,2013-02-04 22:21:00,
2013-02-04 17:32:00,70.0,36.0,-100.00,SSW,209,4.0,-999.0,28,0.00,,,-99.99,146.000000,,2013-02-04 22:32:00,
2013-02-04 17:42:00,70.0,36.0,-100.00,SSW,209,4.0,-999.0,28,0.00,,,-99.99,146.000000,,2013-02-04 22:42:00,
2013-02-04 17:52:00,69.0,37.0,-100.00,SW,222,3.0,-999.0,30,0.00,,,-99.99,86.199997,,2013-02-04 22:52:00,
2013-02-04 18:01:00,69.0,38.0,-100.00,SW,234,2.0,-999.0,31,0.00,,,-99.99,64.099998,,2013-02-04 23:01:00,
2013-02-04 18:11:00,68.0,39.0,-100.00,West,265,2.0,-999.0,34,0.00,,,-99.99,15.800000,,2013-02-04 23:11:00,
2013-02-04 18:22:00,68.0,39.0,-100.00,West,265,2.0,-999.0,34,0.00,,,-99.99,15.800000,,2013-02-04 23:22:00,
2013-02-04 18:32:00,64.0,40.0,-100.00,WNW,292,3.0,-999.0,40,0.00,,,-99.99,5.600000,,2013-02-04 23:32:00,
2013-02-04 18:42:00,62.0,39.0,-100.00,NW,313,3.0,-999.0,42,0.00,,,-99.99,0.700000,,2013-02-04 23:42:00,
2013-02-04 18:52:00,62.0,39.0,-100.00,NW,313,3.0,-999.0,42,0.00,,,-99.99,0.700000,,2013-02-04 23:52:00,
2013-02-04 19:02:00,61.0,39.0,-100.00,NNW,334,3.0,-999.0,43,0.00,,,-99.99,0.000000,,2013-02-05 00:02:00,
2013-02-04 19:11:00,59.0,39.0,-100.00,NNW,338,4.0,-999.0,47,0.00,,,-99.99,0.000000,,2013-02-05 00:11:00,
2013-02-04 19:22:00,59.0,39.0,-100.00,NNW,338,4.0,-999.0,47,0.00,,,-99.99,0.000000,,2013-02-05 00:22:00,
2013-02-04 19:32:00,59.0,41.0,-100.00,NNW,332,4.0,-999.0,52,0.00,,,-99.99,0.000000,,2013-02-05 00:32:00,
2013-02-04 19:42:00,55.0,42.0,-100.00,NW,316,4.0,-999.0,60,0.00,,,-99.99,0.000000,,2013-02-05 00:42:00,
2013-02-04 19:52:00,55.0,42.0,-100.00,NW,316,4.0,-999.0,60,0.00,,,-99.99,0.000000,,2013-02-05 00:52:00,
2013-02-04 20:02:00,58.0,42.0,-100.00,NW,322,4.0,-999.0,53,0.00,,,-99.99,0.000000,,2013-02-05 01:02:00,
2013-02-04 20:12:00,57.0,42.0,-100.00,NW,322,5.0,-999.0,56,0.00,,,-99.99,0.000000,,2013-02-05 01:12:00,
2013-02-04 20:22:00,57.0,42.0,-100.00,NW,322,5.0,-999.0,56,0.00,,,-99.99,0.000000,,2013-02-05 01:22:00,
2013-02-04 20:32:00,56.0,43.0,-100.00,NW,320,5.0,-999.0,62,0.00,,,-99.99,0.000000,,2013-02-05 01:32:00,
2013-02-04 20:42:00,55.0,43.0,-100.00,West,273,6.0,-999.0,64,0.00,,,-99.99,0.000000,,2013-02-05 01:42:00,
2013-02-04 20:52:00,55.0,43.0,-100.00,West,273,6.0,-999.0,64,0.00,,,-99.99,0.000000,,2013-02-05 01:52:00,
2013-02-04 21:01:00,55.0,42.0,-100.00,West,273,6.0,-999.0,61,0.00,,,-99.99,0.000000,,2013-02-05 02:01:00,
2013-02-04 21:11:00,54.0,42.0,-100.00,WNW,287,6.0,-999.0,64,0.00,,,-99.99,0.000000,,2013-02-05 02:11:00,
2013-02-04 21:22:00,54.0,42.0,-100.00,WNW,287,6.0,-999.0,64,0.00,,,-99.99,0.000000,,2013-02-05 02:22:00,
2013-02-04 21:32:00,53.0,43.0,-100.00,WNW,291,6.0,-999.0,69,0.00,,,-99.99,0.000000,,2013-02-05 02:32:00,
2013-02-04 21:42:00,52.0,44.0,-100.00,WNW,283,6.0,-999.0,74,0.00,,,-99.99,0.000000,,2013-02-05 02:42:00,
2013-02-04 21:52:00,52.0,44.0,-100.00,WNW,283,6.0,-999.0,74,0.00,,,-99.99,0.000000,,2013-02-05 02:52:00,
2013-02-04 22:02:00,52.0,44.0,-100.00,WNW,287,6.0,-999.0,75,0.00,,,-99.99,0.000000,,2013-02-05 03:02:00,
2013-02-04 22:11:00,51.0,44.0,-100.00,WNW,297,6.0,-999.0,76,0.00,,,-99.99,0.000000,,2013-02-05 03:11:00,
2013-02-04 22:21:00,51.0,44.0,-100.00,WNW,297,6.0,-999.0,76,0.00,,,-99.99,0.000000,,2013-02-05 03:21:00,
2013-02-04 22:32:00,51.0,44.0,-100.00,WNW,302,7.0,-999.0,75,0.00,,,-99.99,0.000000,,2013-02-05 03:32:00,
2013-02-04 22:42:00,51.0,43.0,-100.00,WNW,300,6.0,-999.0,74,0.00,,,-99.99,0.000000,,2013-02-05 03:42:00,
2013-02-04 22:52:00,51.0,43.0,-100.00,WNW,300,6.0,-999.0,74,0.00,,,-99.99,0.000000,,2013-02-05 03:52:00,
2013-02-04 23:01:00,51.0,43.0,-100.00,WNW,303,6.0,-999.0,74,0.00,,,-99.99,0.000000,,2013-02-05 04:01:00,
2013-02-04 23:11:00,50.0,42.0,-100.00,NW,309,7.0,-999.0,74,0.00,,,-99.99,0.000000,,2013-02-05 04:11:00,
2013-02-04 23:21:00,50.0,42.0,-100.00,NW,309,7.0,-999.0,74,0.00,,,-99.99,0.000000,,2013-02-05 04:21:00,
2013-02-04 23:32:00,50.0,43.0,-100.00,NW,317,7.0,-999.0,76,0.00,,,-99.99,0.000000,,2013-02-05 04:32:00,
2013-02-04 23:42:00,50.0,44.0,-100.00,NW,317,7.0,-999.0,77,0.00,,,-99.99,0.000000,,2013-02-05 04:42:00,
2013-02-04 23:52:00,50.0,44.0,-100.00,NW,317,7.0,-999.0,77,0.00,,,-99.99,0.000000,,2013-02-05 04:52:00,